TimeAKDT,TemperatureF,Dew PointF,Humidity,Sea Level PressureIn,VisibilityMPH,Wind Direction,Wind SpeedMPH,Gust SpeedMPH,PrecipitationIn,Events,Conditions,WindDirDegrees,DateUTC
12:53 AM,10.9,8.1,88,30.13,10.0,SSW,12.7,-,0.00,,Partly Cloudy,200,2013-05-07 08:53:00
1:53 AM,9.0,7.0,92,30.13,10.0,SSW,13.8,-,N/A,,Partly Cloudy,200,2013-05-07 09:53:00
2:53 AM,6.1,3.9,91,30.14,10.0,SSW,13.8,-,N/A,,Clear,200,2013-05-07 10:53:00
3:53 AM,5.0,3.0,92,30.14,10.0,South,8.1,-,N/A,,Overcast,180,2013-05-07 11:53:00
4:53 AM,1.9,-0.0,91,30.14,10.0,South,8.1,-,N/A,,Clear,190,2013-05-07 12:53:00
5:53 AM,1.9,1.0,96,30.14,10.0,South,10.4,-,0.00,,Clear,180,2013-05-07 13:53:00
6:53 AM,8.1,6.1,92,30.13,10.0,SSW,10.4,-,0.00,,Overcast,200,2013-05-07 14:53:00
7:53 AM,12.9,10.0,88,30.13,10.0,South,10.4,-,N/A,,Overcast,190,2013-05-07 15:53:00
8:53 AM,14.0,10.9,88,30.13,10.0,SSW,10.4,-,N/A,,Mostly Cloudy,200,2013-05-07 16:53:00
9:53 AM,17.1,12.9,84,30.13,10.0,SSW,12.7,-,0.00,,Mostly Cloudy,200,2013-05-07 17:53:00
10:32 AM,19.4,17.6,93,30.13,4.0,SW,12.7,-,0.00,Snow,Light Snow,220,2013-05-07 18:32:00
10:53 AM,21.9,18.0,85,30.13,10.0,SW,11.5,-,0.00,,Overcast,220,2013-05-07 18:53:00
11:17 AM,21.2,19.4,93,30.13,2.5,SW,15.0,-,0.00,Snow,Light Snow,230,2013-05-07 19:17:00
11:20 AM,21.2,19.4,93,30.13,3.0,WSW,15.0,-,0.00,Snow,Light Snow,240,2013-05-07 19:20:00
11:53 AM,21.9,19.0,89,30.14,5.0,SW,13.8,-,0.00,Snow,Light Snow,230,2013-05-07 19:53:00
12:02 PM,21.2,19.4,93,30.13,7.0,SW,12.7,-,0.00,Snow,Light Snow,230,2013-05-07 20:02:00
12:53 PM,23.0,19.9,88,30.14,10.0,SW,13.8,-,0.00,,Overcast,220,2013-05-07 20:53:00
1:53 PM,24.1,21.0,88,30.14,10.0,SW,13.8,-,N/A,,Overcast,230,2013-05-07 21:53:00
2:53 PM,25.0,21.0,85,30.14,10.0,SW,15.0,-,N/A,,Overcast,220,2013-05-07 22:53:00
3:53 PM,24.1,19.9,84,30.15,10.0,WSW,12.7,-,N/A,,Partly Cloudy,240,2013-05-07 23:53:00
4:53 PM,24.1,19.9,84,30.14,10.0,SW,11.5,-,N/A,,Partly Cloudy,230,2013-05-08 00:53:00
5:53 PM,23.0,19.9,88,30.14,10.0,SSW,10.4,-,N/A,,Clear,210,2013-05-08 01:53:00
6:53 PM,21.9,19.9,92,30.14,10.0,SSW,10.4,-,N/A,,Partly Cloudy,200,2013-05-08 02:53:00
7:53 PM,21.9,19.0,89,30.13,10.0,SSW,11.5,-,N/A,,Partly Cloudy,200,2013-05-08 03:53:00
8:53 PM,19.9,18.0,92,30.13,10.0,SSW,11.5,-,N/A,,Clear,210,2013-05-08 04:53:00
9:53 PM,18.0,16.0,92,30.14,10.0,SW,12.7,-,N/A,,Scattered Clouds,220,2013-05-08 05:53:00
10:36 PM,21.2,17.6,86,30.14,10.0,SW,13.8,-,N/A,,Mostly Cloudy,230,2013-05-08 06:36:00
10:50 PM,21.2,19.4,93,30.14,10.0,SW,12.7,-,N/A,,Overcast,230,2013-05-08 06:50:00
10:53 PM,21.0,19.0,92,30.14,10.0,SW,12.7,-,N/A,,Overcast,230,2013-05-08 06:53:00
11:53 PM,21.9,19.0,89,30.14,10.0,SSW,11.5,-,N/A,,Overcast,210,2013-05-08 07:53:00